[[{"header":{"parameterUnit":"m.s-1","parameterCategory":1,"la1":30.2992,"la2":30.254,"lo1":-89.0895,"lo2":-89.0443,"dy":0.0025,"dx":0.0025,"nx":19,"ny":19,"refTime":"2026-03-24T03:00:00:Z","depth":0,"parameterNumber":2,"parameterNumberName":"U-component_of_WINDS"},"data":[0,0,0,-5.5176,-5.5179,-5.5329,-5.533,-5.5528,-5.553,0,0,0,0,0,0,0,0,0,0,0,-5.5137,-5.5138,-5.5176,-5.518,-5.5329,-5.533,-5.5527,-5.553,0,0,0,0,0,0,0,0,0,0,0,-5.5136,-5.5138,-5.514,-5.518,-5.5329,-5.533,-5.5527,-5.5411,0,0,0,0,0,0,0,0,0,0,-5.5265,-5.5233,-5.5137,-5.514,-5.5181,-5.5329,-5.533,-5.5406,-5.5419,-5.5463,0,-5.5505,0,-5.5521,-5.5543,-5.5544,0,0,0,-5.5176,-5.5222,-5.5259,-5.514,-5.5183,-5.5329,-5.5261,-5.5413,-5.5428,-5.548,-5.5508,-5.5515,-5.5524,-5.5545,-5.5546,-5.5819,-5.582,0,0,-5.5167,-5.5165,-5.5249,-5.5269,-5.5247,-5.5256,-5.5265,-5.5422,-5.5451,-5.5508,-5.5519,-5.5527,-5.5546,-5.5548,-5.5817,-5.5819,0,0,0,-5.5146,-5.516,-5.5192,-5.5261,-5.5287,-5.526,-5.5271,-5.5444,-5.5454,-5.5521,-5.553,-5.5547,-5.555,-5.5816,-5.5818,-5.5887,0,0,0,-5.5141,-5.5148,-5.5189,-5.5189,-5.5285,-5.5367,-5.529,-5.5444,-5.5461,-5.5529,-5.5547,-5.5552,-5.5814,-5.5817,-5.5881,-5.5918,0,0,0,-5.5125,-5.5146,-5.5169,-5.5189,-5.5253,-5.5365,-5.5385,-5.5447,-5.5467,-5.5544,-5.5552,-5.5813,-5.5816,-5.5876,-5.591,-5.5987,0,0,0,-5.5107,-5.5228,-5.517,-5.5309,-5.5252,-5.5408,-5.5384,-5.55,-5.5575,-5.5548,-5.5814,-5.5818,-5.5875,-5.5905,-5.5982,-5.6049,-5.6078,0,0,-5.5258,-5.5246,-5.5328,-5.5281,-5.5446,-5.5385,-5.5561,-5.5631,-5.564,-5.5758,-5.5765,-5.5883,-5.5909,-5.5986,-5.6248,-5.627,0,0,0,-5.5375,-5.5434,-5.5478,-5.555,-5.5609,-5.5661,-5.5705,-5.5732,-5.5832,-5.5701,-5.5934,-5.595,-5.5995,-5.6027,-5.6046,-5.6084,-5.5833,-5.5833,-5.5833,-5.5583,-5.559,-5.5726,-5.5752,-5.5823,-5.5869,-5.5926,-5.5969,-5.5954,-5.601,-5.6043,-5.6201,-5.6239,-5.6253,-5.6293,-5.6083,-5.6083,-5.6083,-5.6084,-5.5802,-5.5885,-5.5867,-5.5991,-5.5998,-5.6102,-5.6153,-5.614,-5.6237,-5.6176,-5.6216,-5.6145,-5.6278,-5.6313,-5.6089,-5.6088,-5.6087,-5.6087,-5.6086,-5.5935,-5.5976,-5.6009,-5.6115,-5.6197,-5.622,-5.6315,-5.6319,-5.6323,-5.6363,-5.6398,-5.6397,-5.6393,-5.6381,-5.6381,-5.6382,-5.6382,-5.6383,-5.6383,-5.6058,-5.6093,-5.6173,-5.6248,-5.6296,-5.6359,-5.641,-5.6457,-5.651,-5.6505,-5.6505,-5.6483,-5.6292,-5.6241,-5.6391,-5.639,-5.6389,-5.6388,-5.6387,-5.627,-5.6224,-5.6347,-5.6395,-5.6484,-5.6565,-5.6571,-5.6667,-5.6707,-5.6754,-5.6727,-5.6586,-5.6572,-5.6557,-5.6514,-5.6726,-5.6726,-5.6726,-5.6726,-5.6378,-5.6375,-5.6502,-5.6579,-5.6655,-5.6675,-5.6813,-5.6856,-5.6891,-5.6916,-5.6888,-5.6834,-5.6818,-5.6814,-5.6793,-5.6753,-5.7021,-5.7022,-5.7022,-5.6508,-5.6512,-5.6628,-5.6664,-5.6736,-5.6796,-5.6927,-5.7015,-5.7047,-5.7034,-5.6936,-5.6923,-5.6836,-5.6808,-5.6786,-5.6754,-5.6681,0,0]},{"header":{"parameterUnit":"m.s-1","parameterCategory":1,"la1":30.2992,"la2":30.254,"lo1":-89.0895,"lo2":-89.0443,"dy":0.0025,"dx":0.0025,"nx":19,"ny":19,"refTime":"2026-03-24T03:00:00:Z","depth":0,"parameterNumber":3,"parameterNumberName":"V-component_of_WINDS"},"data":[0,0,0,1.5997,1.5996,1.5936,1.5936,1.5867,1.5866,0,0,0,0,0,0,0,0,0,0,0,1.6019,1.6018,1.5997,1.5995,1.5936,1.5936,1.5867,1.5866,0,0,0,0,0,0,0,0,0,0,0,1.6019,1.6018,1.6018,1.5995,1.5936,1.5936,1.5867,1.5909,0,0,0,0,0,0,0,0,0,0,1.5965,1.599,1.6018,1.6018,1.5995,1.5936,1.5936,1.5911,1.5906,1.5896,0,1.5889,0,1.5877,1.5862,1.5862,0,0,0,1.5992,1.5994,1.5974,1.6018,1.5994,1.5936,1.5962,1.5908,1.5903,1.589,1.5888,1.5885,1.5876,1.5861,1.5861,1.5821,1.5821,0,0,1.5995,1.601,1.5978,1.5971,1.5981,1.5964,1.596,1.5905,1.5903,1.5888,1.5884,1.5875,1.5861,1.5861,1.5821,1.5821,0,0,0,1.6007,1.6012,1.5994,1.5974,1.5963,1.5962,1.5958,1.5905,1.5898,1.5883,1.5874,1.5861,1.586,1.5821,1.5821,1.5836,0,0,0,1.6009,1.6019,1.5995,1.6004,1.5964,1.5934,1.596,1.5902,1.5896,1.5874,1.5861,1.5859,1.5821,1.5821,1.5835,1.584,0,0,0,1.6021,1.602,1.6014,1.6005,1.598,1.5934,1.5924,1.59,1.589,1.5862,1.5859,1.5821,1.5821,1.5835,1.5839,1.5835,0,0,0,1.6037,1.6025,1.6014,1.5997,1.5981,1.5945,1.5924,1.5896,1.5873,1.586,1.5821,1.5821,1.5835,1.5839,1.5835,1.5834,1.5835,0,0,1.603,1.6025,1.6014,1.6002,1.5972,1.5952,1.5924,1.5888,1.5871,1.5838,1.5837,1.5836,1.5839,1.5835,1.5837,1.5838,0,0,0,1.6016,1.6009,1.5998,1.5978,1.5953,1.5931,1.5899,1.5886,1.5859,1.5858,1.5832,1.5834,1.5831,1.583,1.5831,1.5828,1.5821,1.5821,1.5821,1.6024,1.6007,1.5988,1.5964,1.5945,1.5915,1.5898,1.5876,1.5859,1.5855,1.5844,1.5848,1.5848,1.5848,1.5845,1.5843,1.5843,1.5843,1.5843,1.6012,1.5999,1.5983,1.5959,1.5941,1.592,1.5891,1.5882,1.586,1.5853,1.5849,1.5843,1.585,1.5847,1.5844,1.5844,1.5843,1.5843,1.5843,1.6015,1.6006,1.5993,1.5966,1.5948,1.5924,1.5905,1.5888,1.5872,1.5868,1.5857,1.5857,1.5854,1.5864,1.5865,1.5865,1.5865,1.5865,1.5865,1.6022,1.6008,1.5995,1.5971,1.5959,1.594,1.5913,1.5899,1.5881,1.587,1.5869,1.5855,1.5854,1.5855,1.5865,1.5865,1.5865,1.5865,1.5865,1.6015,1.6015,1.5996,1.5984,1.5956,1.594,1.5921,1.5897,1.5884,1.5876,1.5864,1.5866,1.5858,1.5858,1.5857,1.5867,1.5867,1.5867,1.5867,1.6017,1.6014,1.5992,1.5975,1.5956,1.5938,1.5917,1.5897,1.5876,1.5867,1.5864,1.5863,1.5863,1.5855,1.5854,1.5854,1.5863,1.5863,1.5863,1.6013,1.6007,1.5992,1.5974,1.5953,1.5935,1.5916,1.5897,1.5872,1.5862,1.586,1.586,1.5859,1.5859,1.5846,1.5845,1.5844,0,0]}]]